Flag for U.S.A. Weather past 2 weeks in Columbus, Georgia, U.S.A.

Now
69 °F

Clear.


Feels Like: 69 °F
Forecast: 70 / 84 °F
Wind: 5 mph from Southwest

Location: Columbus Metropolitan Airport

Current Time: Jul 2, 2015 at 5:51:28 AM

Latest Report: Jul 2, 2015 at 4:51 AM


Visibility: 10 mi

Pressure: 30.00 "Hg

Humidity: 93%

Dew point: 67 °F

Location of ColumbusLocation

Historic Weather in Columbus — Graph

°F

Columbus temperature yesterday

Maximum temperature yesterday: 88 °F (at 3:51 PM)
Minimum temperature yesterday: 70 °F (at 3:51 AM)
Average temperature yesterday: 78 °F

Past Weeks' High & Low Weather Summary

 TemperatureHumidityPressure
High96 °F (Jun 17, 4:51 PM)97% (Jun 28, 2:51 AM)30.14 "Hg (Jun 28, 2:51 AM)
Low66 °F (Jun 29, 6:51 AM)36% (Jun 22, 1:51 PM)29.85 "Hg (Jun 27, 4:51 PM)
Average81 °F69%30.02 "Hg
* Reported Jun 17 6:51 AM — Jul 2 4:51 AM, Columbus, Weather by CustomWeather, © 2015

Note: Actual official high and low records may vary slightly from our data, if they occured in-between our weather recording intervals... More about our weather records

Advertising

Columbus weather history for previous 24 hours

 ConditionsComfort  
Time TempWeatherWind HumidityBarometerVisibility
4:51 AM
Thu, Jul 2
69 °FClear.5 mph93%30.00 "Hg10 mi
3:51 AM69 °FClear.3 mph93%29.98 "Hg10 mi
2:51 AM69 °FClear.No wind90%30.00 "Hg10 mi
1:51 AM69 °FRain. Partly cloudy.9 mph87%30.03 "Hg8 mi
12:51 AM72 °FThunderstorms. Partly cloudy.5 mph84%30.06 "Hg9 mi
11:51 PM
Wed, Jul 1
76 °FPassing clouds.5 mph74%30.06 "Hg10 mi
10:51 PM77 °FPassing clouds.3 mph74%30.06 "Hg10 mi
9:51 PM80 °FPassing clouds.6 mph76%30.04 "Hg10 mi
8:51 PM83 °FSunny.6 mph65%30.03 "Hg10 mi
7:51 PM84 °FSunny.6 mph63%30.01 "Hg10 mi
6:51 PM85 °FSunny.10 mph61%30.01 "Hg10 mi
5:51 PM86 °FSunny.12 mph57%30.00 "Hg10 mi
4:51 PM88 °FBroken clouds.12 mph52%29.99 "Hg10 mi
3:51 PM88 °FPassing clouds.15 mph55%30.01 "Hg10 mi
2:51 PM87 °FPartly sunny.10 mph59%30.03 "Hg10 mi
1:51 PM85 °FSunny.9 mph61%30.05 "Hg10 mi
12:51 PM81 °FScattered clouds.5 mph69%30.06 "Hg10 mi
11:51 AM80 °FScattered clouds.3 mph69%30.06 "Hg10 mi
10:51 AM76 °FPartly sunny.7 mph77%30.06 "Hg10 mi
9:51 AM74 °FOvercast.9 mph79%30.07 "Hg10 mi
8:51 AM72 °FMostly cloudy.6 mph87%30.06 "Hg10 mi
7:51 AM71 °FLow clouds.6 mph90%30.04 "Hg10 mi
6:51 AM70 °FPassing clouds.3 mph93%30.03 "Hg10 mi
5:51 AM71 °FClear.6 mph90%30.03 "Hg10 mi
Weather by CustomWeather, © 2015

See weather overviewHow to use our weather pages